Regional Weather Roundup
Issued by NWS

Home | Current Version | Previous Version | Graphics & Text | Print | Product List | Glossary On
Versions: 1 2 3 4 5 6 7 8 9 10 11 12 13 14 15 16 17 18 19 20 21 22 23 24 25 26 27 28 29 30 31 32 33 34 35 36 37 38 39 40 41 42 43 44 45 46 47 48 49 50
000
ASUS43 KLSX 261710
RWRMO

WEATHER SUMMARY FOR MISSOURI
NATIONAL WEATHER SERVICE SPRINGFIELD MO
1100 AM CST SUN FEB 26 2017

NOTE: "FAIR" INDICATES FEW OR NO CLOUDS BELOW 12,000 FEET WITH NO
       SIGNIFICANT WEATHER AND/OR OBSTRUCTIONS TO VISIBILITY.
       CURRENT SKY AND/OR WEATHER CONDITIONS ARE NOT AVAILABLE FOR
       CHILLICOTHE AND FARMINGTON.

MOZ001>031-035>038-043-044-053-054-261800-
...NORTHERN AND WESTERN MISSOURI...

CITY           SKY/WX    TMP DP  RH WIND       PRES   REMARKS
KANSAS CTY INT CLOUDY    43  32  65 SW8       30.03S
KANSAS C DTWN  CLOUDY    40  35  83 SW3       30.04F
LEE`S SUMMIT   CLOUDY    40  33  76 S7        30.04F
ST JOSEPH      PTSUNNY   45  34  65 SW13      30.02F
CHILLICOTHE      N/A     44  30  57 S14       30.04R
KIRKSVILLE     SUNNY     46  23  40 SW15G25   30.01F

$$
MOZ066>068-077>081-088>096-101>105-261800-
...SOUTHWEST MISSOURI...

CITY           SKY/WX    TMP DP  RH WIND       PRES   REMARKS
SPRINGFIELD    LGT SNOW  35  31  85 S10       30.09R FOG     WCI  27
JOPLIN         LGT RAIN  39  36  89 S12       30.07F
BRANSON        CLOUDY    43  23  45 SE9       30.09S

$$
MOZ032>034-039>042-045>050-055>058-069>072-261800-
...CENTRAL MISSOURI...

CITY           SKY/WX    TMP DP  RH WIND       PRES   REMARKS
COLUMBIA       CLOUDY    41  18  39 S7        30.09R
JEFFERSON CITY CLOUDY    41  17  38 CALM      30.11S
ROLLA          CLOUDY    42  16  34 S14       30.09S
SEDALIA        CLOUDY    43  24  47 SW5       30.08R
WHITEMAN AFB   CLOUDY    41  30  63 S6        30.05S
WARRENSBURG    CLOUDY    41  28  60 SE3       30.06F
OSAGE BEACH    CLOUDY    43  18  36 S12       30.10R

$$
MOZ051-052-059>065-261800-
...EAST CENTRAL MISSOURI...

CITY           SKY/WX    TMP DP  RH WIND       PRES   REMARKS
ST LOUIS INTL  CLOUDY    41  13  31 S13G21    30.14R
SPIRIT OF STL  CLOUDY    40  14  34 S10G21    30.14R
ST CHARLES     CLOUDY    43  14  31 S12G21    30.14R

$$
MOZ072>076-082>087-097>100-106>115-261800-
...SOUTH CENTRAL AND SOUTHEAST MISSOURI...

CITY           SKY/WX    TMP DP  RH WIND       PRES   REMARKS
CAPE GIRARDEAU MOSUNNY   46  19  34 S14G21    30.21R
FARMINGTON     CLOUDY    40  17  39 S12G20    30.16S
POPLAR BLUFF   PTSUNNY   45  24  43 S13       30.21R
WEST PLAINS    CLOUDY    42  19  39 S10       30.13F

$$




USA.gov is the U.S. government's official web portal to all federal, state and local government web resources and services.